[TLELIST] Archives

 

Current TLEs

December 3rd 2007 PDT

HST 1 20580U 90037B 07330.85776693 .00000412 00000-0 19096-4 0 142 2 20580 028.4682 209.3145 0003443 026.7935 333.2830 15.00307838764416 ISS (ZARYA) 1 25544U 98067A 07331.53224545 .00020960 00000-0 13130-3 0 4177 2 25544 051.6414 341.7286 0001119 199.0548 299.5177 15.76767329516546 CXO 1 25867U 99040B 07331.58333333 .00000359 00000-0 10000-3 0 1392 2 25867 062.7678 085.6071 6474146 281.5199 355.2570 00.37797158 2860 ____________________________________________________________________ These 2-Line ...Continue Reading

Current TLEs

December 2nd 2007 PDT

HST 1 20580U 90037B 07330.85776693 .00000412 00000-0 19096-4 0 142 2 20580 028.4682 209.3145 0003443 026.7935 333.2830 15.00307838764416 ISS (ZARYA) 1 25544U 98067A 07331.53224545 .00020960 00000-0 13130-3 0 4177 2 25544 051.6414 341.7286 0001119 199.0548 299.5177 15.76767329516546 CXO 1 25867U 99040B 07331.58333333 .00000359 00000-0 10000-3 0 1392 2 25867 062.7678 085.6071 6474146 281.5199 355.2570 00.37797158 2860 ____________________________________________________________________ These 2-Line ...Continue Reading

Current TLEs

December 1st 2007 PDT

HST 1 20580U 90037B 07330.85776693 .00000412 00000-0 19096-4 0 142 2 20580 028.4682 209.3145 0003443 026.7935 333.2830 15.00307838764416 ISS (ZARYA) 1 25544U 98067A 07331.53224545 .00020960 00000-0 13130-3 0 4177 2 25544 051.6414 341.7286 0001119 199.0548 299.5177 15.76767329516546 CXO 1 25867U 99040B 07331.58333333 .00000359 00000-0 10000-3 0 1392 2 25867 062.7678 085.6071 6474146 281.5199 355.2570 00.37797158 2860 ____________________________________________________________________ These 2-Line ...Continue Reading

Current TLEs

November 30th 2007 PDT

HST 1 20580U 90037B 07330.85776693 .00000412 00000-0 19096-4 0 142 2 20580 028.4682 209.3145 0003443 026.7935 333.2830 15.00307838764416 ISS (ZARYA) 1 25544U 98067A 07331.53224545 .00020960 00000-0 13130-3 0 4177 2 25544 051.6414 341.7286 0001119 199.0548 299.5177 15.76767329516546 CXO 1 25867U 99040B 07331.58333333 .00000359 00000-0 10000-3 0 1392 2 25867 062.7678 085.6071 6474146 281.5199 355.2570 00.37797158 2860 ____________________________________________________________________ These 2-Line ...Continue Reading

Current TLEs

November 29th 2007 PDT

HST 1 20580U 90037B 07330.85776693 .00000412 00000-0 19096-4 0 142 2 20580 028.4682 209.3145 0003443 026.7935 333.2830 15.00307838764416 ISS (ZARYA) 1 25544U 98067A 07331.53224545 .00020960 00000-0 13130-3 0 4177 2 25544 051.6414 341.7286 0001119 199.0548 299.5177 15.76767329516546 CXO 1 25867U 99040B 07331.58333333 .00000359 00000-0 10000-3 0 1392 2 25867 062.7678 085.6071 6474146 281.5199 355.2570 00.37797158 2860 ____________________________________________________________________ These 2-Line ...Continue Reading

Current TLEs

November 28th 2007 PDT

HST 1 20580U 90037B 07330.85776693 .00000412 00000-0 19096-4 0 142 2 20580 028.4682 209.3145 0003443 026.7935 333.2830 15.00307838764416 ISS (ZARYA) 1 25544U 98067A 07331.40572756 .00021203 00000-0 13280-3 0 4169 2 25544 051.6419 342.3800 0001213 190.6460 309.2852 15.76762893516523 CXO 1 25867U 99040B 07331.58333333 .00000359 00000-0 10000-3 0 1392 2 25867 062.7678 085.6071 6474146 281.5199 355.2570 00.37797158 2860 ____________________________________________________________________ These 2-Line ...Continue Reading

Current TLEs

November 27th 2007 PDT

HST 1 20580U 90037B 07329.12818660 .00000416 00000-0 19466-4 0 135 2 20580 028.4683 220.5911 0003423 008.0191 352.0452 15.00307026764157 ISS (ZARYA) 1 25544U 98067A 07330.39121380 .00021862 00000-0 13704-3 0 4105 2 25544 051.6416 347.6118 0001149 189.4365 307.9569 15.76721363516367 CXO 1 25867U 99040B 07328.66666667 .00000424 00000-0 10000-3 0 1388 2 25867 062.7529 085.6697 6470305 281.6091 318.1111 00.37798416 2850 ____________________________________________________________________ These 2-Line ...Continue Reading

Current TLEs

November 26th 2007 PDT

HST 1 20580U 90037B 07329.12818660 .00000416 00000-0 19466-4 0 135 2 20580 028.4683 220.5911 0003423 008.0191 352.0452 15.00307026764157 ISS (ZARYA) 1 25544U 98067A 07329.37534127 .00020233 00000-0 12742-3 0 4054 2 25544 051.6417 352.8519 0001075 192.5384 294.7466 15.76673184516204 CXO 1 25867U 99040B 07328.66666667 .00000424 00000-0 10000-3 0 1388 2 25867 062.7529 085.6697 6470305 281.6091 318.1111 00.37798416 2850 ____________________________________________________________________ These 2-Line ...Continue Reading

Current TLEs

November 25th 2007 PDT

HST 1 20580U 90037B 07327.86426195 .00000407 00000-0 18724-4 0 127 2 20580 028.4688 228.8334 0003372 352.9850 007.0690 15.00306323763966 ISS (ZARYA) 1 25544U 98067A 07328.42561253 .00022867 00000-0 14368-3 0 4005 2 25544 051.6428 357.7452 0001229 186.3733 306.6544 15.76635895516056 CXO 1 25867U 99040B 07328.66666667 .00000424 00000-0 10000-3 0 1388 2 25867 062.7529 085.6697 6470305 281.6091 318.1111 00.37798416 2850 ____________________________________________________________________ These 2-Line ...Continue Reading

Current TLEs

November 24th 2007 PDT

HST 1 20580U 90037B 07325.93511271 +.00000385 +00000-0 +17001-4 0 00361 2 20580 028.4689 241.4122 0003415 330.4875 029.5518 15.00305230763671 ISS (ZARYA) 1 25544U 98067A 07327.47698257 .00022878 00000-0 14403-3 0 3948 2 25544 051.6428 002.6375 0001332 187.2075 317.9366 15.76591285515904 CXO 1 25867U 99040B 07326.29166667 .00000541 00000-0 10000-3 0 1379 2 25867 062.7309 085.7574 6470214 281.6283 354.7941 00.37808848 2840 ____________________________________________________________________ These 2-Line ...Continue Reading
  • This mailing list is a public mailing list - anyone may join or leave, at any time.
  • This mailing list is announce-only.

International Space Station (ISS) / Hubble Space Telescope (HST) / Chandra X-Ray Observatory Orbital Data via EMAIL

Privacy Policy:

Private list